Weather History for Centralia, IL

Change the Weather History Date:

Wednesday, October 24, 2012

  Actual Average (KSLO) Record (KSLO)
Temperature  
Mean Temperature 70 °F -  
Max Temperature 80 °F 65 °F 85 °F (1963)
Min Temperature 61 °F 44 °F 21 °F (1981)
Cooling Degree Days 6    
Growing Degree Days 20 (Base 50)    
Moisture  
Dew Point 59 °F    
Average Humidity 69    
Maximum Humidity 80    
Minimum Humidity 56    
Precipitation  
Precipitation 0.00 in - - ()
Sea Level Pressure  
Sea Level Pressure 29.98 in    
Wind  
Wind Speed 10 mph (South)    
Max Wind Speed 16 mph    
Max Gust Speed 21 mph    
Visibility 10 miles    
Events      
Averages and records for this station are not official NWS values.
T = Trace of Precipitation, MM = Missing Value Source: NWS Daily Summary

Daily Weather History Graph

Daily Weather History Graph

Search for Another Location

Airport:

Trip Planner

Search our weather history database for the weather conditions in past years. The results will help you decide how hot, cold, wet, or windy it might be!

Date:

Astronomy

Oct. 24, 2012 Rise Set
Actual Time 7:14 AM CDT 6:05 PM CDT
Civil Twilight 6:47 AM CDT 6:32 PM CDT
Nautical Twilight 6:16 AM CDT 7:03 PM CDT
Astronomical Twilight 5:46 AM CDT 7:34 PM CDT
Moon 3:18 PM CDT (10/24) 2:13 AM CDT (10/24)
Length of Visible Light 11h 44m
Length of Day
10h 50m
Waxing Gibbous, 76% of the Moon is Illuminated
Oct 24
Waxing Gibbous
Oct 29
Full
Nov 6
Last Quarter
Nov 13
New
Nov 20
First Quarter

Hourly Weather History & Observations

Time (CDT) Temp. Heat Index Dew Point Humidity Pressure Visibility Wind Dir Wind Speed Gust Speed Precip Events Conditions
12:15 AM 66.7 °F - 56.7 °F 70% 29.98 in 10.0 mi South 9.2 mph - N/A   Clear
12:35 AM 66.2 °F - 56.5 °F 71% 29.98 in 10.0 mi South 10.4 mph - N/A   Clear
12:55 AM 66.4 °F - 55.9 °F 69% 29.98 in 10.0 mi South 10.4 mph - N/A   Clear
1:15 AM 66.2 °F - 55.8 °F 69% 29.98 in 10.0 mi South 9.2 mph - N/A   Clear
1:35 AM 65.3 °F - 55.6 °F 71% 29.98 in 10.0 mi South 8.1 mph - N/A   Clear
1:55 AM 64.6 °F - 55.4 °F 72% 29.99 in 10.0 mi South 8.1 mph - N/A   Clear
2:15 AM 63.9 °F - 55.4 °F 74% 29.99 in 10.0 mi South 6.9 mph - N/A   Clear
2:35 AM 63.9 °F - 55.4 °F 74% 30.00 in 10.0 mi SSW 6.9 mph - N/A   Clear
2:55 AM 63.1 °F - 55.6 °F 76% 30.00 in 10.0 mi South 6.9 mph - N/A   Mostly Cloudy
3:15 AM 62.6 °F - 55.4 °F 77% 30.00 in 10.0 mi South 6.9 mph - N/A   Scattered Clouds
3:35 AM 63.1 °F - 55.0 °F 75% 30.00 in 10.0 mi SSW 6.9 mph - N/A   Clear
3:55 AM 64.2 °F - 55.2 °F 73% 30.00 in 10.0 mi South 6.9 mph - N/A   Clear
4:15 AM 63.1 °F - 55.2 °F 75% 29.99 in 10.0 mi South 6.9 mph - N/A   Clear
4:35 AM 63.5 °F - 55.4 °F 75% 30.00 in 10.0 mi South 8.1 mph - N/A   Clear
4:55 AM 63.7 °F - 55.6 °F 75% 29.99 in 10.0 mi South 8.1 mph - N/A   Clear
5:15 AM 62.4 °F - 55.4 °F 78% 30.00 in 10.0 mi SSE 8.1 mph - N/A   Clear
5:35 AM 62.8 °F - 55.4 °F 77% 30.00 in 10.0 mi South 8.1 mph - N/A   Clear
5:55 AM 62.4 °F - 55.0 °F 77% 30.00 in 10.0 mi SSE 9.2 mph - N/A   Clear
6:15 AM 62.4 °F - 55.4 °F 78% 30.00 in 10.0 mi SSE 11.5 mph - N/A   Clear
6:35 AM 62.6 °F - 55.4 °F 77% 30.00 in 10.0 mi SSE 11.5 mph - N/A   Clear
6:55 AM 62.2 °F - 55.4 °F 78% 30.01 in 10.0 mi South 4.6 mph - N/A   Clear
7:15 AM 62.1 °F - 55.4 °F 79% 30.02 in 10.0 mi South 9.2 mph - N/A   Clear
7:35 AM 61.9 °F - 55.6 °F 80% 30.02 in 10.0 mi SSE 8.1 mph - N/A   Clear
7:55 AM 61.9 °F - 55.8 °F 80% 30.03 in 10.0 mi SSE 9.2 mph - N/A   Clear
8:15 AM 63.3 °F - 56.3 °F 78% 30.02 in 10.0 mi South 10.4 mph - N/A   Clear
8:35 AM 64.8 °F - 57.2 °F 76% 30.03 in 10.0 mi South 9.2 mph - N/A   Clear
8:55 AM 66.2 °F - 57.9 °F 75% 30.03 in 10.0 mi South 8.1 mph - N/A   Clear
9:35 AM 68.4 °F - 59.4 °F 73% 30.03 in 10.0 mi SSW 11.5 mph 16.1 mph N/A   Clear
9:55 AM 69.3 °F - 60.3 °F 73% 30.03 in 10.0 mi South 11.5 mph - N/A   Clear
10:15 AM 70.7 °F - 61.0 °F 71% 30.03 in 10.0 mi SSW 12.7 mph 16.1 mph N/A   Clear
10:35 AM 71.8 °F - 61.7 °F 70% 30.02 in 10.0 mi SSW 12.7 mph - N/A   Scattered Clouds
10:55 AM 72.9 °F - 62.1 °F 69% 30.02 in 10.0 mi SSW 12.7 mph 18.4 mph N/A   Scattered Clouds
11:15 AM 73.8 °F - 62.4 °F 68% 30.02 in 10.0 mi South 13.8 mph - N/A   Scattered Clouds
11:35 AM 75.0 °F - 63.3 °F 67% 30.01 in 10.0 mi South 13.8 mph 17.3 mph N/A   Scattered Clouds
11:55 AM 75.9 °F - 63.3 °F 65% 30.01 in 10.0 mi South 13.8 mph - N/A   Clear
12:15 PM 76.5 °F - 63.1 °F 63% 30.00 in 10.0 mi South 12.7 mph - N/A   Clear
12:35 PM 77.5 °F - 63.9 °F 63% 29.99 in 10.0 mi South 10.4 mph - N/A   Clear
12:55 PM 78.1 °F - 63.9 °F 61% 29.98 in 10.0 mi South 11.5 mph 17.3 mph N/A   Clear
1:15 PM 78.6 °F - 63.5 °F 60% 29.98 in 10.0 mi South 15.0 mph 19.6 mph N/A   Clear
1:35 PM 79.2 °F - 64.4 °F 60% 29.97 in 10.0 mi South 11.5 mph - N/A   Clear
1:55 PM 79.7 °F - 63.7 °F 58% 29.96 in 10.0 mi South 12.7 mph 19.6 mph N/A   Clear
2:15 PM 79.9 °F - 64.0 °F 58% 29.95 in 10.0 mi SSE 15.0 mph - N/A   Clear
2:35 PM 80.1 °F 81.6 °F 63.5 °F 57% 29.95 in 10.0 mi South 13.8 mph - N/A   Clear
2:55 PM 80.2 °F 81.8 °F 63.5 °F 57% 29.95 in 10.0 mi South 12.7 mph 20.7 mph N/A   Clear
3:15 PM 80.6 °F 82.2 °F 63.9 °F 57% 29.94 in 10.0 mi South 13.8 mph - N/A   Clear
3:35 PM 79.9 °F - 63.5 °F 57% 29.95 in 10.0 mi South 15.0 mph 18.4 mph N/A   Scattered Clouds
3:55 PM 79.9 °F - 63.0 °F 56% 29.94 in 10.0 mi South 16.1 mph 19.6 mph N/A   Clear
4:15 PM 79.5 °F - 62.6 °F 56% 29.94 in 10.0 mi South 13.8 mph - N/A   Clear
4:35 PM 79.0 °F - 62.6 °F 57% 29.94 in 10.0 mi SSE 11.5 mph - N/A   Clear
4:55 PM 78.3 °F - 62.4 °F 58% 29.94 in 10.0 mi SSE 16.1 mph 20.7 mph N/A   Scattered Clouds
5:15 PM 77.4 °F - 62.1 °F 59% 29.94 in 10.0 mi South 13.8 mph - N/A   Scattered Clouds
5:35 PM 76.3 °F - 62.2 °F 62% 29.94 in 10.0 mi South 9.2 mph 16.1 mph N/A   Clear
5:55 PM 74.7 °F - 62.2 °F 65% 29.94 in 10.0 mi SSE 9.2 mph - N/A   Clear
6:15 PM 72.9 °F - 62.1 °F 69% 29.94 in 10.0 mi SSE 6.9 mph - N/A   Clear
6:35 PM 73.4 °F - 62.6 °F 69% 29.95 in 10.0 mi SSE 8.1 mph - N/A   Clear
6:55 PM 72.5 °F - 61.3 °F 68% 29.95 in 10.0 mi SSE 5.8 mph - N/A   Clear
7:15 PM 72.0 °F - 61.2 °F 69% 29.95 in 10.0 mi SSE 6.9 mph - N/A   Clear
7:35 PM 71.6 °F - 60.8 °F 69% 29.95 in 10.0 mi SSE 9.2 mph - N/A   Clear
7:55 PM 72.3 °F - 60.4 °F 66% 29.95 in 10.0 mi SSE 9.2 mph - N/A   Clear
8:15 PM 72.0 °F - 60.3 °F 67% 29.95 in 10.0 mi SSE 9.2 mph - N/A   Clear
8:35 PM 71.2 °F - 60.3 °F 68% 29.95 in 10.0 mi SSE 10.4 mph - N/A   Clear
9:15 PM 71.1 °F - 59.9 °F 68% 29.95 in 10.0 mi SSE 10.4 mph - N/A   Clear
9:35 PM 70.9 °F - 59.9 °F 68% 29.95 in 10.0 mi SSE 8.1 mph - N/A   Clear
9:55 PM 70.5 °F - 59.7 °F 69% 29.95 in 10.0 mi SSE 11.5 mph - N/A   Clear
10:15 PM 70.3 °F - 59.5 °F 69% 29.94 in 10.0 mi SSE 10.4 mph - N/A   Clear
10:35 PM 69.1 °F - 59.5 °F 72% 29.94 in 10.0 mi South 11.5 mph - N/A   Clear
10:55 PM 68.9 °F - 59.7 °F 72% 29.94 in 10.0 mi South 11.5 mph - N/A   Clear
11:15 PM 68.9 °F - 59.5 °F 72% 29.94 in 10.0 mi South 11.5 mph - N/A   Clear
11:35 PM 68.2 °F - 59.5 °F 74% 29.94 in 10.0 mi South 9.2 mph - N/A   Clear
11:55 PM 67.3 °F - 59.4 °F 76% 29.93 in 10.0 mi South 8.1 mph - N/A   Clear